Location: Aulus
(42.7909°N, 1.3399°E)
Time: 06:56:21
(UTC+00:00)

Lacrosse 4 Rocket - Pass Details

Date: 19 May 2025
Orbit: 513 x 576 km, 68.0° (Epoch: 18 June)

Event Time Altitude Azimuth Distance (km) Brightness Sun altitude
Rises 20:14:37 0° 246° (WSW) 2,629 5.2 -9.9°
Reaches altitude 10° 20:17:15 10° 264° (W) 1,753 4.6 -10.3°
Maximum altitude 20:20:06 19° 311° (NW) 1,292 4.5 -10.7°
Drops below altitude 10° 20:23:00 10° 358° (N) 1,783 4.6 -11.1°
Sets 20:25:43 0° 17° (NNE) 2,691 5.2 -11.5°
